Location: *
(57.6680°S, 48.3040°W)
Time: 18:27:05
(UTC+00:00)

Daily predictions for brighter satellites

Satellite Brightness Start Highest point End
(mag) Time Altitude Azimuth Time Altitude Azimuth Time Altitude Azimuth
Cosmos 2173 Rocket 4.3 21:46:25 10° S 21:52:27 48° ESE 21:58:22 10° NE
Cosmos 1470 3.2 21:50:04 10° S 21:53:59 44° ESE 21:57:52 10° NE
Cosmos 1626 Rocket 3.9 21:49:36 10° NNW 21:54:00 76° WSW 21:58:26 10° S
Cosmos 2221 4.2 21:53:32 10° SSE 21:56:27 17° SE 21:59:20 10° E
Cosmos 44 Rocket 4.3 21:53:18 10° WSW 21:58:02 38° S 22:02:52 10° E
Cosmos 1602 Rocket 4.0 21:55:29 10° NNW 21:59:54 70° WSW 22:04:22 10° S
Cosmos 1825 Rocket 3.7 21:56:11 10° N 22:00:28 52° E 22:04:47 10° SSE
USA 238 DEB 3.9 21:56:30 10° WSW 22:03:44 86° SSE 22:10:53 10° ENE
USA 238 3.9 21:56:35 10° WSW 22:03:49 86° SSE 22:10:58 10° ENE
Cosmos 1758 3.5 22:00:07 10° SSW 22:04:17 83° W 22:08:23 10° N
Meteor 1-21 4.3 21:59:42 10° N 22:05:25 73° E 22:11:17 10° SSE
Cosmos 2360 Rocket 4.0 22:01:33 10° W 22:06:30 29° SSW 22:11:29 10° SE
Meteor 1-29 3.4 22:05:38 10° N 22:09:12 69° WNW 22:12:48 10° SSW
Cosmos 1980 Rocket 4.0 22:04:56 10° SW 22:09:14 21° S 22:13:32 10° SE
Cosmos 2237 Rocket 2.7 22:07:44 10° NW 22:13:22 64° SW 22:19:04 10° SE
Cosmos 1953 2.7 22:10:27 10° SSW 22:14:36 73° W 22:18:43 10° N
Ariane Rocket 4.3 22:12:05 10° S 22:17:03 47° WSW 22:21:59 10° NW
Cosmos 1733 3.2 22:16:06 10° S 22:20:01 71° ESE 22:23:53 10° NNE
Cosmos 1842 Rocket 4.0 22:15:42 10° S 22:20:07 45° ESE 22:24:30 10° NE
ATLAS 5 CENTAUR R/B 2.4 22:13:34 10° W 22:20:07 54° S 22:22:25 12° ESE
Aureole 2 Rocket 4.4 22:17:15 10° WNW 22:20:37 35° SW 22:24:18 10° SSE
H-2A R/B 4.3 22:18:38 10° SE 22:21:06 16° E 22:23:01 12° ENE
Cosmos 2016 Rocket 4.2 22:16:58 10° S 22:23:22 57° ESE 22:29:42 10° NNE
Cosmos 921 Rocket 4.1 22:19:28 10° SSW 22:23:33 30° SE 22:26:49 14° ENE
MSX 4.0 22:17:44 10° SSE 22:23:37 82° WSW 22:29:26 10° NNW
Cosmos 1943 Rocket 2.2 22:18:38 10° SW 22:24:16 79° SE 22:29:50 10° NE
Cosmos 304 Rocket 3.8 22:20:30 10° NNW 22:25:20 67° ENE 22:30:13 10° SSE
Cosmos 1461 4.3 22:20:56 10° WSW 22:25:21 36° S 22:29:30 11° ESE
Cosmos 2333 Rocket 3.3 22:23:13 10° WNW 22:28:46 48° SW 22:34:19 10° SE
Cosmos 1725 Rocket 4.4 22:22:51 10° S 22:29:04 48° ESE 22:35:13 10° NE
Cosmos 2084 4.4 22:24:23 10° WSW 22:29:17 56° NW 22:33:58 10° NNE
Helios 1B rocket 4.0 22:25:23 10° NNW 22:29:19 39° W 22:33:18 10° SSW
Meteor 1-16 Rocket 4.2 22:25:33 10° SSW 22:30:58 65° ESE 22:36:27 10° NNE
ALOS 3.0 22:27:49 10° SSE 22:32:06 32° E 22:36:20 10° NNE
Cosmos 1656 Rocket 4.0 22:27:16 10° SW 22:32:50 55° SE 22:37:38 14° ENE
Cosmos 371 Rocket 4.3 22:29:24 10° NW 22:34:10 51° SW 22:38:59 10° SSE
NOSS 3-2 (C) 3.8 22:27:59 10° WSW 22:35:12 72° SSE 22:40:36 16° ENE
Cosmos 2100 Rocket 4.0 22:28:56 10° SSW 22:35:14 86° ESE 22:41:29 10° NNE
Cosmos 1607 4.3 22:28:59 10° SW 22:35:15 68° NW 22:41:24 10° NE
GP-B 3.6 22:31:11 10° SSE 22:35:31 40° E 22:39:46 10° NNE
Resurs 01 Rocket 2.8 22:33:11 10° SE 22:36:48 23° E 22:40:08 11° NE
Cosmos 1758 Rocket 3.5 22:32:49 10° N 22:37:12 79° E 22:41:40 10° SSE
Cosmos 1603 3.8 22:31:47 10° NNW 22:37:21 53° ENE 22:42:56 10° SE
CZ-4 R/B 2.9 22:34:19 10° S 22:38:19 43° WSW 22:42:21 10° NW
HJ-1C 4.4 22:35:41 10° SE 22:38:42 27° E 22:41:41 10° NNE
Meteor 2-17 Rocket 4.4 22:36:07 10° S 22:42:19 74° ESE 22:48:29 10° NNE
Cosmos 773 Rocket 4.4 22:38:22 10° N 22:43:06 37° ENE 22:47:55 10° SE
Cosmos 1726 4.5 22:43:33 10° SE 22:44:32 11° SE 22:45:15 10° ESE
GENESIS II 4.4 22:41:42 10° WNW 22:45:32 72° SW 22:49:25 10° SE
IDEFIX/ARIANE 42P 4.1 22:41:39 10° S 22:46:40 42° WSW 22:51:39 10° NW
Cosmos 1271 Rocket 3.7 22:45:23 10° SSW 22:49:09 49° W 22:52:56 10° N
Cosmos 1943 3.6 22:45:57 10° N 22:51:07 38° ENE 22:56:20 10° SE
Cosmos 2098 Rocket 4.2 22:48:09 10° SSW 22:51:40 42° W 22:55:57 10° NNW
Cosmos 1802 Rocket 4.1 22:46:10 10° SSW 22:52:37 89° W 22:58:55 10° N
Cosmos 1953 Rocket 3.9 22:48:42 10° NNW 22:53:15 76° WSW 22:57:53 10° S
NOAA 12 4.1 22:49:22 10° SSE 22:54:47 66° ENE 23:00:08 10° N
USA 229 DEB 4.1 22:47:46 10° WNW 22:55:02 70° SSW 23:02:13 10° ESE
USA 229 4.1 22:47:52 10° WNW 22:55:09 70° SSW 23:02:19 10° ESE
CENTAUR R/B 2.9 22:49:02 10° WSW 22:55:50 57° SSE 23:00:26 18° E
Nimbus 7 Rocket 4.5 22:50:24 10° NNE 22:56:25 86° ESE 23:02:34 10° SSW
YAOGAN 1 4.0 22:53:44 10° S 22:57:55 43° WSW 23:02:05 10° NW
Blok-L 4.4 22:53:45 10° NNW 22:58:07 42° NE 23:00:14 19° ESE
Cosmos 1484 Rocket 4.2 22:55:04 10° S 22:58:58 44° WSW 23:02:47 10° NW
Cosmos 2061 Rocket 4.2 22:53:56 10° SSW 23:00:15 78° W 23:06:33 10° N
USA 234 4.2 22:56:53 16° E 23:00:29 25° NE 23:05:47 10° N
Cosmos 1624 Rocket 4.1 22:58:40 10° SSW 23:04:05 68° ESE 23:07:42 21° NE
Cosmos 1378 3.5 23:01:24 14° NNE 23:04:21 41° E 23:08:00 10° SSE
METEOR-M 4.1 23:00:48 10° SSE 23:06:17 81° ENE 23:11:43 10° NNW
SL-16 R/B 2.9 23:02:21 10° NW 23:08:00 58° SW 23:13:42 10° SE
Meteor 1-24 Rocket 4.2 23:03:06 10° NNE 23:08:47 44° E 23:14:33 10° SSE
NOSS 3-1 (A) 3.9 23:00:55 10° NW 23:08:59 85° NE 23:16:06 10° ESE
FREGAT/IRIS 2.6 23:05:52 10° SSE 23:09:05 86° ENE 23:12:15 10° NNW
ATLAS 3B R/B 3.6 23:03:21 10° SW 23:10:10 49° NW 23:17:17 10° NNE
CZ-2D R/B 4.0 23:07:02 10° SSE 23:10:36 32° E 23:11:08 31° ENE
Cosmos 2056 Rocket 3.5 23:05:44 10° SSW 23:10:57 70° ESE 23:14:05 24° NE
ATLAS 2AS CENTAUR R/B 2.8 23:05:46 10° NNW 23:11:29 39° NE 23:17:04 10° ESE
Exosat Rocket 4.4 23:06:56 10° NW 23:12:20 68° SW 23:19:35 10° SE
NOSS 3-1 (C) 4.0 23:05:05 10° WNW 23:13:07 84° SSW 23:20:12 10° ESE
Cosmos 389 Rocket 2.8 23:09:34 10° SSW 23:13:12 66° W 23:16:11 14° N
Cosmos 1174 4.1 23:08:51 10° SW 23:13:59 83° NW 23:16:05 29° NE
Helios 1A 4.2 23:10:40 10° SE 23:13:35 24° ESE 23:13:35 24° ESE
Meteor 2-5 Rocket 3.8 23:08:44 10° N 23:14:42 67° E 23:20:41 10° SSE
Cosmos 724 4.3 23:12:31 10° SW 23:18:22 74° SE 23:21:41 27° ENE
Cosmos 1707 2.6 23:14:45 10° N 23:18:41 84° E 23:22:40 10° SSE
SJ-6B 2.8 23:16:00 10° SSE 23:20:11 86° ENE 23:24:14 10° NNW
Cosmos 2322 Rocket 4.1 23:15:53 10° SW 23:20:21 22° S 23:24:47 10° SE
COSMOS 2455 2.9 23:15:04 10° SW 23:21:11 74° SE 23:24:32 28° ENE
deb Chang Zheng 4 3.6 23:19:10 27° NE 23:21:31 67° ESE 23:25:58 10° SSW
Cosmos 2369 Rocket 3.9 23:18:24 10° SW 23:23:26 32° WNW 23:28:27 10° NNW
SL-16 R/B 4.1 23:19:36 10° SW 23:24:01 22° S 23:28:27 10° ESE
Resurs 1-3 3.8 23:20:45 10° SSE 23:25:06 47° E 23:27:27 24° NNE
Cosmos 292 Rocket 3.7 23:26:30 10° NNW 23:31:18 68° ENE 23:36:08 10° SSE
Spot 2 Rocket 3.6 23:26:36 10° SSE 23:31:40 54° ENE 23:36:12 13° N
Cosmos 1680 Rocket 3.7 23:27:12 10° N 23:32:14 47° ENE 23:37:18 10° SE
Cosmos 44 3.7 23:27:56 10° SW 23:33:05 60° SSE 23:35:24 33° E
Cosmos 2219 Rocket 4.2 23:29:30 10° W 23:34:22 27° SSW 23:39:14 10° SE
Cosmos 2221 2.4 23:30:21 10° SSW 23:34:46 86° E 23:36:47 31° NNE
Aureole 1 Rocket 3.0 23:35:00 35° NNE 23:36:17 52° ENE 23:40:58 10° SE
Cosmos 1697 Rocket 3.8 23:32:10 10° SW 23:37:18 33° SSE 23:39:55 23° ESE
CZ-4B R/B 3.4 23:36:32 36° NE 23:38:21 63° ESE 23:43:14 10° SSW
NOSS 3-2 (A) 3.8 23:31:52 10° SW 23:38:48 67° NW 23:42:15 28° NNE
FengYun 1-2 T 4.1 23:33:21 10° SSE 23:38:59 76° ENE 23:44:32 10° NNW
Cosmos 2233 Rocket 4.0 23:33:32 10° SSW 23:40:01 81° ESE 23:44:18 23° NNE
Cosmos 44 Rocket 3.4 23:35:08 10° SW 23:40:16 73° SE 23:42:09 39° ENE
Cosmos 1908 3.4 23:37:39 10° S 23:41:37 56° ESE 23:42:04 52° ENE
Cosmos 1371 Rocket 4.4 23:37:26 10° SSW 23:42:44 63° WNW 23:45:53 24° N
Cosmos 1538 Rocket 4.2 23:37:33 10° NW 23:42:50 73° WSW 23:48:15 10° SSE
MOLY 3-50 4.3 23:36:37 10° NW 23:44:45 77° NE 23:48:40 13° ESE
CZ-4 R/B 3.8 23:43:25 39° NE 23:45:14 72° ESE 23:50:13 10° SSW
Cosmos 2123 Rocket 3.9 23:40:14 10° N 23:46:28 77° E 23:52:46 10° SSE
Cosmos 1076 Rocket 4.3 23:48:59 36° ESE 23:48:59 36° ESE 23:52:22 10° SSE
Envisat 3.5 23:44:30 10° SSE 23:49:16 38° E 23:49:16 38° E
Cosmos 1452 Rocket 3.6 23:44:04 10° SSW 23:49:26 67° SE 23:51:07 43° ENE
FENGYUN 3A 3.7 23:44:37 10° SSE 23:50:09 83° WSW 23:55:38 10° NNW
Cosmos 923 Rocket 3.9 23:45:51 10° NNW 23:51:08 76° ENE 23:56:27 10° SSE
Cosmos 2360 Rocket 4.3 23:48:00 10° SW 23:52:20 22° S 23:56:40 10° SE
H-2A R/B 2.8 23:52:04 10° SSE 23:55:53 74° WSW 23:58:14 22° NNW
